Change the Weather History Date:

Thursday, October 4, 2012

  Actual Average (KMOT) Record (KMOT)
Temperature  
Mean Temperature 32 °F 50 °F  
Max Temperature 37 °F 61 °F 94 °F (1963)
Min Temperature 26 °F 39 °F 20 °F (1919)
Degree Days  
Heating Degree Days 34 15  
Month to date heating degree days 58  
Since 1 July heating degree days 378  
Cooling Degree Days 0 0  
Month to date cooling degree days 0  
Year to date cooling degree days 444  
Moisture  
Dew Point 29 °F    
Average Humidity 85    
Maximum Humidity 100    
Minimum Humidity 60    
Precipitation  
Precipitation 0.00 in 0.05 in 0.76 in (1998)
Month to date precipitation 0.18  
Year to date precipitation 15.08  
Sea Level Pressure  
Sea Level Pressure 30.34 in    
Wind  
Wind Speed 13 mph (NNW)    
Max Wind Speed 16 mph    
Max Gust Speed 23 mph    
Visibility 10 miles    
Events      
T = Trace of Precipitation, MM = Missing Value Source: NWS Daily Summary

Daily Weather History Graph

Daily Weather History Graph

Search for Another Location

Airport or City:

Trip Planner

Search our weather history database for the weather conditions in past years. The results will help you decide how hot, cold, wet, or windy it might be!

Date:

Astronomy

Oct. 04, 2012 Rise Set
Actual Time 7:54 AM CDT 7:21 PM CDT
Civil Twilight 7:22 AM CDT 7:52 PM CDT
Nautical Twilight 6:46 AM CDT 8:28 PM CDT
Astronomical Twilight 6:09 AM CDT 9:05 PM CDT
Moon 9:36 PM CDT (10/4) 12:34 PM CDT (10/4)
Length of Visible Light 12h 29m
Length of Day
11h 27m
Waning Gibbous, 82% of the Moon is Illuminated
Oct 4
Waning Gibbous
Oct 8
Last Quarter
Oct 15
New
Oct 21
First Quarter
Oct 29
Full

Hourly Weather History & Observations

Time (CDT) Temp. Windchill Dew Point Humidity Pressure Visibility Wind Dir Wind Speed Gust Speed Precip Events Conditions
12:15 AM 33.8 °F 24.3 °F 33.8 °F 100% 30.33 in 10.0 mi North 13.8 mph - N/A   Mostly Cloudy
12:35 AM 33.8 °F 24.3 °F 33.8 °F 100% 30.33 in 10.0 mi North 13.8 mph 17.3 mph N/A   Mostly Cloudy
12:55 AM 33.8 °F 23.9 °F 33.8 °F 100% 30.33 in 10.0 mi North 15.0 mph - N/A   Mostly Cloudy
1:15 AM 33.8 °F 24.8 °F 33.8 °F 100% 30.33 in 10.0 mi North 12.7 mph 18.4 mph N/A   Overcast
1:35 AM 33.8 °F 24.3 °F 33.8 °F 100% 30.33 in 10.0 mi North 13.8 mph 20.7 mph N/A   Mostly Cloudy
1:55 AM 33.8 °F 24.8 °F 32.0 °F 93% 30.33 in 10.0 mi North 12.7 mph - N/A   Overcast
2:15 AM 33.8 °F 24.8 °F 32.0 °F 93% 30.33 in 10.0 mi North 12.7 mph - N/A   Overcast
2:35 AM 33.8 °F 24.8 °F 32.0 °F 93% 30.33 in 10.0 mi North 12.7 mph 23.0 mph N/A   Overcast
2:55 AM 33.8 °F 25.3 °F 32.0 °F 93% 30.34 in 10.0 mi North 11.5 mph - N/A   Overcast
3:15 AM 33.8 °F 23.9 °F 32.0 °F 93% 30.34 in 10.0 mi North 15.0 mph 19.6 mph N/A   Overcast
3:35 AM 32.0 °F 22.5 °F 32.0 °F 100% 30.34 in 10.0 mi North 12.7 mph - N/A   Overcast
3:55 AM 32.0 °F 23.0 °F 32.0 °F 100% 30.34 in 10.0 mi North 11.5 mph - N/A   Overcast
4:15 AM 32.0 °F 22.5 °F 32.0 °F 100% 30.34 in 10.0 mi NNW 12.7 mph - N/A   Overcast
4:35 AM 33.8 °F 23.9 °F 32.0 °F 93% 30.35 in 10.0 mi NNW 15.0 mph - N/A   Overcast
4:55 AM 32.0 °F 22.1 °F 30.2 °F 93% 30.35 in 10.0 mi North 13.8 mph - N/A   Mostly Cloudy
5:15 AM 32.0 °F 22.1 °F 30.2 °F 93% 30.34 in 10.0 mi North 13.8 mph 20.7 mph N/A   Mostly Cloudy
5:35 AM 32.0 °F 21.2 °F 30.2 °F 93% 30.34 in 10.0 mi North 16.1 mph - N/A   Mostly Cloudy
5:55 AM 32.0 °F 23.0 °F 30.2 °F 93% 30.34 in 10.0 mi North 11.5 mph - N/A   Overcast
6:15 AM 32.0 °F 22.1 °F 30.2 °F 93% 30.34 in 10.0 mi NNW 13.8 mph - N/A   Overcast
6:35 AM 32.0 °F 23.6 °F 30.2 °F 93% 30.34 in 10.0 mi NNW 10.4 mph 16.1 mph N/A   Overcast
6:55 AM 32.0 °F 24.8 °F 30.2 °F 93% 30.34 in 10.0 mi NNW 8.1 mph - N/A   Overcast
7:15 AM 32.0 °F 23.0 °F 30.2 °F 93% 30.35 in 10.0 mi NNW 11.5 mph 16.1 mph N/A   Overcast
7:35 AM 32.0 °F 21.6 °F 30.2 °F 93% 30.35 in 10.0 mi NNW 15.0 mph - N/A   Overcast
7:55 AM 32.0 °F 22.1 °F 32.0 °F 100% 30.35 in 10.0 mi NNW 13.8 mph 19.6 mph N/A   Overcast
8:15 AM 32.0 °F 22.1 °F 30.2 °F 93% 30.35 in 10.0 mi North 13.8 mph - N/A   Overcast
8:35 AM 32.0 °F 23.6 °F 32.0 °F 100% 30.35 in 10.0 mi North 10.4 mph - N/A   Overcast
8:55 AM 32.0 °F 22.5 °F 30.2 °F 93% 30.35 in 10.0 mi NNW 12.7 mph - N/A   Overcast
9:15 AM 32.0 °F 21.6 °F 32.0 °F 100% 30.35 in 10.0 mi North 15.0 mph - N/A   Overcast
9:35 AM 32.0 °F 22.5 °F 32.0 °F 100% 30.36 in 10.0 mi North 12.7 mph - N/A   Overcast
9:55 AM 32.0 °F 21.2 °F 32.0 °F 100% 30.36 in 10.0 mi North 16.1 mph - N/A   Overcast
10:15 AM 32.0 °F 21.6 °F 32.0 °F 100% 30.36 in 10.0 mi North 15.0 mph - N/A   Overcast
10:35 AM 32.0 °F 21.6 °F 32.0 °F 100% 30.36 in 10.0 mi North 15.0 mph - N/A   Overcast
10:55 AM 32.0 °F 22.1 °F 32.0 °F 100% 30.36 in 10.0 mi North 13.8 mph 20.7 mph N/A   Overcast
11:15 AM 33.8 °F 24.3 °F 30.2 °F 87% 30.36 in 10.0 mi North 13.8 mph 19.6 mph N/A   Overcast
11:35 AM 35.6 °F 26.6 °F 28.4 °F 75% 30.36 in 10.0 mi North 13.8 mph 19.6 mph N/A   Overcast
11:55 AM 33.8 °F 24.3 °F 28.4 °F 81% 30.36 in 10.0 mi NNW 13.8 mph 21.9 mph N/A   Overcast
12:15 PM 33.8 °F 25.3 °F 28.4 °F 81% 30.37 in 10.0 mi NNW 11.5 mph 20.7 mph N/A   Overcast
12:35 PM 33.8 °F 23.5 °F 28.4 °F 81% 30.37 in 10.0 mi North 16.1 mph 20.7 mph N/A   Overcast
12:55 PM 33.8 °F 23.9 °F 28.4 °F 81% 30.37 in 10.0 mi North 15.0 mph 18.4 mph N/A   Overcast
1:35 PM 35.6 °F 26.6 °F 28.4 °F 75% 30.36 in 10.0 mi North 13.8 mph 19.6 mph N/A   Overcast
1:55 PM 35.6 °F 26.2 °F 28.4 °F 75% 30.36 in 10.0 mi NNW 15.0 mph - N/A   Overcast
2:15 PM 35.6 °F 26.6 °F 26.6 °F 70% 30.35 in 10.0 mi NNW 13.8 mph 19.6 mph N/A   Overcast
2:35 PM 35.6 °F 27.1 °F 28.4 °F 75% 30.35 in 10.0 mi NNW 12.7 mph - N/A   Overcast
2:55 PM 35.6 °F 27.1 °F 26.6 °F 70% 30.34 in 10.0 mi NNW 12.7 mph 19.6 mph N/A   Overcast
3:15 PM 35.6 °F 26.6 °F 26.6 °F 70% 30.34 in 10.0 mi NNW 13.8 mph 19.6 mph N/A   Overcast
3:35 PM 35.6 °F 26.2 °F 26.6 °F 70% 30.34 in 10.0 mi North 15.0 mph 19.6 mph N/A   Overcast
3:55 PM 37.4 °F 29.8 °F 26.6 °F 65% 30.33 in 10.0 mi NNW 11.5 mph 19.6 mph N/A   Overcast
4:15 PM 37.4 °F 29.3 °F 26.6 °F 65% 30.33 in 10.0 mi NNW 12.7 mph - N/A   Overcast
4:35 PM 37.4 °F 28.9 °F 24.8 °F 60% 30.33 in 10.0 mi NW 13.8 mph 20.7 mph N/A   Overcast
4:55 PM 37.4 °F 29.3 °F 26.6 °F 65% 30.33 in 10.0 mi NW 12.7 mph 20.7 mph N/A   Mostly Cloudy
5:15 PM 35.6 °F 29.2 °F 24.8 °F 65% 30.33 in 10.0 mi NW 8.1 mph 17.3 mph N/A   Mostly Cloudy
5:35 PM 37.4 °F 29.8 °F 26.6 °F 65% 30.34 in 10.0 mi NW 11.5 mph 18.4 mph N/A   Overcast
5:55 PM 37.4 °F 29.8 °F 26.6 °F 65% 30.34 in 10.0 mi NW 11.5 mph 19.6 mph N/A   Overcast
6:15 PM 35.6 °F 28.0 °F 24.8 °F 65% 30.34 in 10.0 mi NNW 10.4 mph - N/A   Overcast
6:35 PM 37.4 °F 29.3 °F 24.8 °F 60% 30.33 in 10.0 mi NNW 12.7 mph 17.3 mph N/A   Overcast
6:55 PM 35.6 °F 28.0 °F 24.8 °F 65% 30.34 in 10.0 mi NNW 10.4 mph - N/A   Overcast
7:15 PM 33.8 °F 27.0 °F 24.8 °F 70% 30.34 in 10.0 mi NNW 8.1 mph - N/A   Mostly Cloudy
7:35 PM 32.0 °F 23.6 °F 24.8 °F 75% 30.34 in 10.0 mi NNW 10.4 mph - N/A   Partly Cloudy
7:55 PM 32.0 °F 25.6 °F 24.8 °F 75% 30.34 in 10.0 mi NW 6.9 mph - N/A   Clear
8:15 PM 32.0 °F 25.6 °F 24.8 °F 75% 30.35 in 10.0 mi NW 6.9 mph - N/A   Scattered Clouds
8:35 PM 28.4 °F 21.2 °F 24.8 °F 86% 30.35 in 10.0 mi NW 6.9 mph - N/A   Partly Cloudy
8:55 PM 28.4 °F 21.2 °F 24.8 °F 86% 30.34 in 10.0 mi NW 6.9 mph - N/A   Clear
9:15 PM 28.4 °F 21.2 °F 24.8 °F 86% 30.34 in 10.0 mi NW 6.9 mph - N/A   Clear
9:35 PM 28.4 °F 20.4 °F 24.8 °F 86% 30.34 in 10.0 mi NW 8.1 mph - N/A   Mostly Cloudy
9:55 PM 28.4 °F 21.2 °F 24.8 °F 86% 30.34 in 10.0 mi NW 6.9 mph - N/A   Mostly Cloudy
10:15 PM 26.6 °F 19.1 °F 23.0 °F 86% 30.34 in 10.0 mi WNW 6.9 mph - N/A   Mostly Cloudy
10:35 PM 26.6 °F 20.0 °F 23.0 °F 86% 30.34 in 10.0 mi NW 5.8 mph - N/A   Partly Cloudy
10:55 PM 26.6 °F 18.2 °F 23.0 °F 86% 30.34 in 10.0 mi NW 8.1 mph - N/A   Clear
11:15 PM 28.4 °F 19.7 °F 23.0 °F 80% 30.34 in 10.0 mi NW 9.2 mph - N/A   Clear
11:35 PM 28.4 °F 19.7 °F 23.0 °F 80% 30.34 in 10.0 mi NW 9.2 mph - N/A   Clear
11:55 PM 26.6 °F 17.5 °F 23.0 °F 86% 30.34 in 10.0 mi NW 9.2 mph - N/A   Clear